User: anonymous   Login
Location: Goodsell Observatory
(44.4617°N, 93.1522°W)
Time: 06:57:59
(UTC-06:00)
Language:

Hubble Space Telescope - Orbit

View from above orbital plane
View from above orbital plane
View from above satellite
View from above satellite

Ground track
Ground track

The orbit data is extracted from the following two-line orbital elements,

1 20580U 90037B   17017.20336316  .00000456  00000-0  17214-4 0  9998
2 20580  28.4700 285.1034 0002670 353.1189 142.6572 15.08647030267462
Epoch (UTC): 17 January 2017 04:52:50
Eccentricity: 0.0002670
inclination: 28.4700°
perigee height: 538 km
apogee height: 542 km
right ascension of ascending node: 285.1034°
argument of perigee: 353.1189°
revolutions per day: 15.08647030
mean anomaly at epoch: 142.6572°
orbit number at epoch: 26746

The dashed part of the orbit path shows where the satellite is in the earth's shadow,  

DLR